Temp
30 31 30 32 34 34 35 35 35 36 36 34 34 34 34 32 32 32 31 30 29 28 27 26 25 25 24 23 22 21 20 20 20 19 19 19 20 20 20 20 19 19 18 18
31 30 33 34 34 34 35 35 35 36 36 35 34 34 35 34 32 32 32 31 30 29 28 27 26 25 24 23 23 21 20 20 19 19 19 21 22 22 22 20 19 18 18 18
31 32 33 34 34 34 34 35 35 35 36 35 34 32 34 35 33 32 32 32 31 30 29 28 26 25 25 24 23 21 20 20 20 20 20 20 20 21 21 21 20 19 18 19
32 34 33 33 33 34 33 35 36 36 31 31 35 33 34 35 34 34 32 32 32 30 30 29 27 26 25 24 23 22 21 20 20 20 21 21 21 21 22 22 22 21 19 19
31 32 33 32 33 34 34 36 35 36 35 34 34 33 34 35 34 35 34 33 32 32 30 30 29 27 26 25 24 23 21 20 20 20 20 21 21 22 22 22 21 19 18 18
32 33 33 34 34 34 35 35 35 35 35 32 34 32 35 32 35 36 36 34 33 32 31 30 29 28 27 26 25 24 22 21 20 20 20 20 21 21 22 21 20 20 19 18
31 32 33 34 32 34 34 34 32 32 32 32 35 34 31 37 36 36 36 36 34 33 32 31 30 29 28 26 25 24 23 21 21 20 20 20 20 20 20 20 20 21 21 20
30 29 32 33 33 32 33 34 32 30 32 33 35 34 35 37 37 37 36 36 36 33 32 31 30 29 28 27 25 24 24 22 22 20 20 20 20 20 20 20 21 20 21 21
31 30 33 33 33 33 33 33 35 34 34 34 35 35 36 37 37 37 36 36 36 35 33 32 31 29 28 27 26 25 24 22 23 21 21 21 21 21 20 20 20 20 21 21
32 31 33 33 33 33 33 35 33 35 31 32 34 34 35 35 35 36 36 36 36 35 34 33 32 30 29 28 26 25 24 23 23 22 22 22 22 22 22 20 20 20 20 20
32 32 32 33 32 31 32 34 34 34 34 32 32 34 37 36 35 35 36 36 36 36 35 33 32 31 29 28 27 25 24 23 22 22 22 22 22 20 22 21 20 20 20 19
32 31 30 31 33 33 33 33 33 34 31 33 34 34 38 37 37 36 37 37 36 36 36 34 33 32 31 29 28 27 25 24 22 22 23 23 23 22 21 22 21 20 20 20
32 30 29 29 32 33 31 32 34 34 34 32 32 33 37 37 37 36 36 36 36 36 35 35 34 33 31 29 28 28 26 26 24 23 22 22 23 23 22 22 22 20 21 21
30 31 29 30 30 32 31 31 32 34 33 32 33 33 35 36 36 36 35 35 36 35 34 33 34 33 32 30 28 27 27 27 26 24 23 22 22 22 21 21 21 21 21 22
30 28 30 31 32 32 32 32 32 32 32 32 33 33 34 35 36 36 35 35 35 35 35 33 32 33 32 30 29 27 27 27 27 25 24 23 22 21 20 20 19 20 20 20
29 28 29 29 31 31 31 32 32 32 32 32 33 33 35 36 35 35 35 35 35 35 35 34 31 31 31 29 28 27 26 27 26 26 25 24 22 21 20 20 19 19 18 18
28 28 27 27 29 30 29 31 32 32 33 32 31 32 34 34 35 35 35 34 34 34 34 35 32 30 30 29 27 27 26 26 25 25 25 24 22 21 20 20 19 19 18 17
27 27 28 27 28 26 30 32 32 32 32 33 33 33 33 34 34 34 34 34 34 34 34 34 33 30 29 28 28 26 25 25 24 24 24 23 22 21 20 19 18 18 17 16
28 27 26 26 27 28 29 30 30 29 30 33 33 33 34 33 33 33 33 34 34 34 34 34 33 31 30 29 27 26 25 24 23 22 22 22 21 21 19 20 21 21 19 16
26 26 27 27 26 26 29 27 27 28 28 31 31 31 33 33 33 34 33 33 33 33 33 33 33 31 29 28 27 25 24 23 22 22 22 22 21 21 21 19 17 17 16 16
24 25 25 26 26 28 27 27 27 26 27 26 27 28 29 30 33 33 32 33 32 32 30 30 30 30 28 26 26 24 23 23 22 22 21 21 20 19 18 17 18 18 17 16
24 24 26 27 26 25 26 27 26 24 24 25 26 27 27 28 30 32 28 28 28 29 29 28 28 28 26 26 24 23 23 22 22 22 21 20 20 19 18 18 17 17 16 16
26 27 27 27 28 25 23 23 22 23 24 24 26 26 28 29 29 28 26 26 26 26 26 27 25 24 24 23 22 22 22 22 21 21 20 19 19 18 18 17 17 17 16 15
27 28 28 24 23 21 22 21 22 22 23 24 25 26 27 26 25 25 25 25 25 25 24 23 23 23 22 22 21 20 20 20 20 19 19 18 18 17 17 17 16 16 16 15
12 15 24 23 22 21 20 19 20 21 22 22 21 22 22 23 23 23 22 23 23 23 23 22 22 21 19 19 20 20 20 19 19 19 19 17 17 16 16 16 16 15 15 15
11 12 13 21 22 21 18 18 19 20 20 21 22 21 20 20 20 20 19 20 21 21 21 21 20 19 19 18 18 18 18 18 18 16 16 16 16 16 15 15 15 15 15 15
Height
1459 1461 1458 1454 1451 1449 1442 1442 1445 1438 1443 1459 1464 1464 1467 1475 1480 1483 1489 1497 1502 1507 1512 1517 1522 1527 1531 1535 1538 1541 1545 1547 1551 1553 1556 1558 1559 1560 1562 1563 1562 1563 1564 1563
1453 1453 1446 1448 1447 1448 1442 1440 1440 1434 1438 1451 1456 1459 1457 1468 1475 1479 1482 1488 1495 1501 1506 1512 1517 1522 1525 1530 1533 1537 1539 1543 1546 1549 1551 1555 1557 1558 1558 1557 1559 1560 1562 1563
1439 1439 1442 1442 1443 1446 1443 1439 1435 1439 1435 1445 1451 1463 1454 1456 1467 1473 1477 1480 1486 1492 1498 1504 1511 1516 1520 1524 1528 1531 1534 1538 1542 1545 1549 1551 1553 1554 1556 1558 1558 1557 1559 1561
1435 1430 1435 1439 1441 1438 1446 1434 1431 1432 1456 1470 1446 1468 1448 1448 1454 1462 1470 1473 1477 1483 1490 1496 1503 1509 1513 1518 1523 1527 1529 1533 1537 1541 1544 1547 1550 1552 1553 1555 1556 1557 1557 1559
1429 1428 1429 1436 1431 1431 1438 1429 1433 1430 1434 1442 1445 1458 1437 1437 1444 1449 1457 1463 1469 1474 1481 1487 1493 1500 1507 1513 1517 1521 1524 1528 1532 1535 1539 1543 1546 1549 1551 1553 1553 1554 1554 1556
1419 1422 1423 1423 1427 1428 1430 1432 1430 1430 1433 1458 1438 1454 1438 1454 1433 1435 1441 1452 1460 1466 1472 1480 1487 1493 1499 1505 1510 1515 1518 1521 1525 1530 1533 1537 1542 1544 1548 1550 1551 1552 1554 1554
1420 1416 1417 1419 1429 1426 1432 1436 1454 1457 1451 1454 1429 1437 1456 1414 1419 1427 1432 1437 1445 1456 1464 1470 1477 1483 1490 1496 1502 1508 1511 1514 1518 1523 1528 1531 1536 1540 1543 1546 1547 1550 1551 1553
1422 1429 1410 1412 1417 1423 1424 1424 1439 1466 1454 1443 1418 1433 1420 1408 1413 1419 1425 1429 1433 1445 1455 1461 1468 1474 1481 1488 1494 1500 1504 1507 1512 1517 1521 1526 1530 1536 1539 1541 1544 1546 1548 1550
1406 1412 1400 1406 1412 1416 1415 1421 1411 1427 1418 1430 1416 1410 1407 1406 1410 1418 1425 1427 1430 1435 1445 1453 1459 1466 1473 1479 1484 1490 1497 1500 1504 1510 1515 1519 1523 1528 1533 1536 1537 1541 1544 1547
1391 1407 1392 1396 1408 1408 1406 1404 1423 1411 1439 1440 1418 1414 1416 1407 1416 1417 1419 1423 1424 1430 1436 1444 1451 1458 1466 1472 1478 1484 1490 1493 1498 1504 1508 1512 1516 1521 1527 1530 1532 1536 1539 1541
1387 1392 1394 1392 1394 1402 1408 1401 1400 1405 1409 1426 1431 1412 1386 1396 1405 1411 1415 1417 1418 1422 1427 1437 1444 1451 1458 1465 1471 1477 1482 1487 1492 1497 1501 1505 1509 1514 1518 1523 1526 1530 1533 1535
1379 1386 1399 1387 1382 1388 1393 1396 1397 1401 1421 1407 1406 1401 1374 1384 1394 1403 1404 1406 1410 1414 1418 1425 1435 1443 1450 1456 1463 1468 1475 1480 1484 1489 1494 1498 1503 1507 1511 1514 1519 1522 1525 1526
1372 1383 1397 1399 1382 1380 1388 1385 1382 1386 1390 1400 1413 1404 1378 1385 1388 1397 1403 1406 1408 1411 1416 1419 1424 1433 1440 1446 1454 1460 1466 1471 1477 1482 1487 1491 1494 1498 1502 1506 1511 1513 1515 1517
1366 1370 1379 1383 1382 1373 1387 1388 1384 1383 1389 1394 1392 1396 1383 1382 1389 1395 1401 1404 1404 1407 1414 1420 1421 1425 1430 1437 1442 1451 1458 1464 1470 1475 1480 1483 1485 1490 1494 1499 1502 1504 1506 1508
1368 1375 1367 1367 1364 1366 1369 1379 1381 1384 1379 1390 1383 1386 1382 1380 1384 1389 1396 1400 1404 1406 1409 1415 1418 1419 1423 1430 1436 1443 1451 1456 1462 1468 1472 1475 1479 1483 1488 1492 1495 1498 1498 1502
1365 1374 1368 1370 1365 1366 1368 1363 1370 1376 1377 1375 1378 1377 1370 1376 1379 1383 1386 1393 1396 1399 1402 1406 1412 1415 1417 1422 1428 1435 1442 1448 1455 1460 1464 1469 1473 1477 1481 1484 1488 1490 1492 1494
1362 1366 1375 1380 1367 1369 1380 1365 1360 1360 1363 1372 1384 1374 1376 1373 1373 1376 1382 1387 1392 1396 1398 1398 1404 1408 1410 1417 1422 1428 1434 1442 1447 1452 1457 1461 1465 1468 1472 1477 1481 1483 1486 1488
1356 1364 1367 1373 1372 1392 1355 1350 1352 1358 1357 1354 1357 1363 1368 1371 1372 1374 1377 1380 1385 1390 1392 1393 1396 1404 1407 1412 1417 1424 1430 1434 1439 1444 1449 1454 1460 1464 1467 1470 1472 1475 1479 1481
1350 1357 1368 1373 1370 1362 1357 1353 1353 1358 1357 1349 1352 1353 1356 1363 1367 1368 1368 1372 1376 1382 1384 1386 1388 1395 1402 1405 1410 1416 1423 1428 1433 1437 1443 1448 1453 1457 1460 1461 1463 1465 1467 1472
1351 1356 1357 1361 1369 1371 1347 1355 1358 1360 1367 1354 1357 1356 1353 1354 1360 1354 1362 1367 1368 1371 1376 1379 1381 1389 1394 1400 1405 1410 1416 1419 1425 1431 1437 1443 1448 1451 1454 1457 1460 1463 1467 1469
1354 1357 1360 1355 1358 1347 1349 1356 1360 1378 1371 1364 1366 1363 1359 1355 1347 1353 1356 1356 1361 1367 1374 1377 1378 1383 1388 1395 1401 1406 1414 1417 1422 1429 1434 1440 1446 1449 1452 1452 1454 1457 1461 1464
1346 1352 1349 1350 1355 1364 1352 1354 1361 1364 1363 1366 1363 1359 1357 1354 1348 1350 1358 1360 1361 1366 1371 1374 1376 1380 1388 1390 1395 1405 1413 1416 1421 1426 1431 1435 1439 1445 1448 1449 1451 1453 1459 1462
1334 1327 1337 1339 1338 1346 1355 1358 1363 1362 1365 1367 1361 1356 1353 1351 1350 1352 1359 1361 1367 1369 1373 1374 1375 1379 1392 1385 1394 1404 1410 1414 1419 1425 1429 1433 1435 1439 1444 1447 1448 1452 1456 1460
1316 1322 1326 1338 1351 1353 1356 1364 1368 1368 1368 1366 1361 1354 1355 1355 1359 1362 1365 1369 1374 1376 1379 1381 1382 1382 1394 1388 1395 1401 1408 1412 1417 1422 1424 1431 1431 1435 1439 1444 1447 1450 1454 1457
1350 1348 1322 1333 1348 1359 1372 1369 1368 1373 1371 1373 1369 1367 1369 1367 1370 1372 1374 1378 1384 1385 1386 1388 1387 1386 1392 1391 1395 1401 1407 1412 1415 1419 1422 1426 1430 1434 1438 1442 1447 1450 1452 1454
1368 1360 1364 1317 1339 1343 1365 1373 1378 1379 1380 1380 1376 1377 1380 1380 1380 1381 1383 1386 1391 1393 1393 1392 1387 1388 1393 1399 1400 1403 1407 1411 1414 1419 1424 1427 1431 1435 1439 1443 1446 1449 1452 1453
Wind_Speed
25 18 24 27 25 24 23 21 18 15 24 19 17 14 13 17 19 19 24 23 25 26 26 26 26 25 24 23 22 23 22 22 20 19 16 13 12 12 14 15 17 15 12 11
17 24 25 25 26 25 28 23 17 13 21 20 18 19 18 17 16 19 22 26 26 26 27 27 27 28 27 26 24 24 24 24 23 18 17 16 13 13 13 14 10 10 12 9
23 23 25 25 26 27 27 26 18 18 19 17 16 18 19 17 22 20 20 23 27 29 30 30 30 30 29 29 28 27 27 26 25 22 16 16 13 15 9 13 12 11 9 9
25 20 25 27 29 27 25 25 24 19 14 15 19 16 22 19 21 20 24 24 27 31 31 31 32 32 32 31 29 29 28 28 25 25 21 19 16 15 13 11 9 9 11 10
25 22 25 29 29 28 25 25 23 23 19 20 23 18 11 21 19 19 22 27 28 29 32 33 34 33 32 31 30 29 31 30 27 26 24 22 20 15 13 11 10 12 10 11
25 26 27 21 26 24 24 25 24 24 18 16 23 18 20 16 18 19 24 28 28 29 30 32 32 32 33 33 32 30 32 33 30 28 26 28 21 20 14 14 11 9 10 10
23 28 23 23 23 25 28 24 16 19 18 20 25 19 23 18 18 18 19 26 29 29 29 31 33 34 33 35 35 33 34 35 33 30 29 27 30 22 21 14 15 12 12 12
19 21 30 21 27 27 31 29 19 25 17 20 25 24 21 19 12 18 20 19 26 29 31 33 34 35 35 35 37 37 36 37 35 32 31 30 27 25 22 21 16 15 14 13
22 25 22 27 28 29 30 28 28 27 24 19 21 19 22 7 18 19 16 22 18 28 30 35 35 36 36 37 40 41 38 38 39 34 34 33 32 30 25 23 23 19 18 14
22 17 23 27 25 26 32 24 26 23 28 27 24 22 17 19 16 17 19 19 18 21 27 34 36 37 37 37 39 39 40 39 39 37 36 35 36 35 32 29 27 23 19 22
25 19 15 24 30 30 21 27 23 25 24 21 20 19 21 18 18 20 22 29 22 24 26 29 34 36 39 38 38 39 39 40 39 38 38 36 37 33 35 34 32 28 26 25
26 17 17 22 23 26 27 29 32 17 28 20 22 19 14 17 15 12 19 22 27 22 24 27 30 34 37 41 39 39 38 38 38 38 39 40 39 38 36 36 34 33 31 29
23 21 17 19 19 23 30 31 31 31 22 26 22 20 21 7 13 26 23 22 19 13 6 11 24 30 38 41 42 41 40 38 35 36 36 38 41 42 42 40 36 36 35 35
12 22 26 19 23 17 28 28 31 29 23 22 26 25 22 22 15 10 11 22 17 12 11 15 21 27 36 41 45 43 41 37 36 34 35 37 40 41 40 40 40 39 40 40
17 21 23 27 26 23 23 26 27 33 29 28 25 29 27 25 24 21 26 23 22 24 15 17 22 25 33 37 40 45 41 39 36 38 37 38 38 37 36 36 38 39 44 42
20 17 19 21 24 26 24 24 30 27 29 29 29 31 23 29 33 23 24 25 28 21 20 18 20 23 30 36 39 39 43 39 38 36 38 35 35 35 35 38 37 39 38 41
24 18 19 22 20 18 22 26 24 23 28 26 28 28 26 28 25 25 29 30 28 29 30 25 20 27 32 34 35 36 39 38 36 36 35 36 35 36 35 34 34 36 36 35
20 22 17 16 20 25 18 24 28 27 27 26 28 27 27 28 37 41 34 32 35 36 34 34 22 25 30 32 31 32 30 36 36 39 35 35 34 32 32 31 31 34 33 33
19 18 17 17 19 16 18 18 6 5 13 18 22 21 24 35 35 34 42 44 36 34 36 36 25 26 29 32 33 33 32 31 32 32 35 33 33 34 29 29 29 30 30 29
20 14 15 18 24 25 14 6 2 2 12 14 16 20 23 24 19 17 33 42 36 24 24 27 22 25 30 33 32 33 36 37 36 32 30 30 30 28 27 25 24 22 23 24
21 19 20 18 16 20 13 5 4 9 6 9 13 19 22 19 23 28 25 36 29 24 23 20 21 26 30 32 32 33 31 32 30 26 24 24 23 23 21 22 22 21 22 27
23 21 16 19 21 16 9 12 11 4 7 12 15 15 20 26 31 27 6 6 11 16 19 21 24 25 28 30 32 30 28 28 28 26 26 25 24 19 20 21 19 19 20 25
23 20 16 17 19 13 11 11 5 5 5 9 9 8 10 7 3 6 5 6 9 14 17 21 25 27 24 31 31 29 26 29 27 26 24 21 19 17 18 20 19 18 20 17
17 24 19 10 12 14 16 13 10 9 5 3 6 9 5 14 14 15 17 15 14 16 19 21 26 28 23 26 26 25 23 25 24 22 23 20 20 20 18 15 15 14 15 12
5 16 14 21 21 23 19 18 16 14 13 10 17 19 19 20 19 21 19 17 15 16 19 20 23 24 19 22 23 21 19 20 19 18 18 17 16 17 19 19 17 13 13 12
2 7 4 12 20 25 19 19 18 16 16 15 20 21 20 21 20 20 19 17 16 15 16 18 21 24 21 18 19 18 17 17 17 18 17 16 18 16 14 15 15 11 7 8
Wind_Direction
194 204 211 212 218 230 231 211 231 209 163 194 196 228 159 177 201 198 190 195 197 204 204 205 204 203 202 203 204 205 203 210 203 213 217 219 231 228 234 238 244 238 263 256
185 214 214 219 220 225 241 242 222 209 160 193 202 206 184 181 200 209 204 196 207 206 208 205 205 204 205 203 204 203 205 205 210 215 206 216 224 229 240 240 228 231 246 249
211 207 216 213 222 222 231 244 234 218 165 181 229 217 205 191 189 209 218 213 206 212 207 203 206 207 206 206 204 205 207 209 210 203 213 220 218 231 228 233 257 255 233 229
226 215 203 222 222 221 225 233 251 231 132 238 209 245 195 202 204 196 213 216 213 208 212 208 207 209 209 209 208 207 210 210 213 210 208 215 217 222 228 229 226 213 216 208
218 219 217 212 220 222 229 225 233 247 230 221 202 227 212 204 201 197 207 213 217 212 211 212 209 211 213 211 211 210 212 213 206 216 206 216 215 218 216 215 217 206 217 198
237 212 229 218 224 224 230 237 233 234 249 238 231 204 238 172 211 193 201 205 213 214 210 212 215 213 213 213 212 211 211 215 215 209 221 204 218 212 212 213 213 207 206 208
222 229 217 233 220 217 224 227 228 230 220 239 227 207 238 222 193 210 212 207 202 209 211 208 211 212 211 210 210 209 209 217 218 215 212 217 206 215 213 209 215 206 210 214
213 215 226 206 222 218 216 219 223 223 227 228 236 230 214 219 229 197 206 228 200 197 208 210 209 209 208 208 207 207 208 214 220 214 216 218 217 213 215 220 211 216 211 214
211 226 213 213 216 229 213 222 225 235 229 235 229 222 240 241 216 230 252 248 219 192 205 211 209 208 207 205 205 206 207 212 221 214 219 222 225 216 215 215 228 213 212 212
234 238 214 206 219 224 239 215 222 230 238 236 227 237 221 203 223 245 232 245 235 226 204 212 210 208 206 206 206 205 207 212 219 216 220 221 226 228 216 216 217 213 216 206
231 238 229 213 202 215 218 236 222 231 237 245 245 235 224 198 206 222 227 233 223 210 203 211 211 210 207 206 206 206 207 210 216 215 218 220 224 220 227 218 224 223 211 221
216 225 220 228 225 210 232 226 232 227 222 244 257 250 218 212 184 226 222 223 210 216 215 202 212 210 208 207 207 207 207 210 213 213 219 226 228 226 225 227 221 229 227 228
200 224 225 225 228 216 217 234 227 234 227 230 237 239 250 213 211 207 224 251 250 240 242 231 201 209 207 204 206 206 206 208 210 211 215 219 227 230 228 231 224 222 229 229
250 217 224 219 224 222 215 220 239 236 232 236 236 245 239 238 222 234 235 249 235 219 211 234 231 213 208 205 204 204 206 206 208 210 210 214 221 224 224 223 227 233 235 234
236 226 230 226 253 227 222 218 228 239 237 238 243 233 236 240 235 216 213 230 238 238 226 225 229 224 207 203 205 203 206 204 206 208 210 213 219 219 218 219 221 226 236 237
220 227 238 231 232 241 251 227 211 227 246 250 249 254 243 243 248 243 230 233 234 240 249 228 232 226 207 204 204 203 205 204 202 207 206 210 212 219 218 221 221 228 233 238
212 217 214 230 237 237 241 245 250 241 221 228 243 253 256 257 255 247 232 238 246 249 257 254 230 222 208 203 202 204 203 201 202 202 204 205 209 215 220 223 230 234 233 233
221 212 223 229 221 231 239 237 236 246 254 252 234 234 240 248 252 256 255 235 239 248 256 260 226 223 208 202 200 198 198 197 199 203 200 202 203 208 221 218 221 230 235 232
234 217 218 229 233 235 201 256 293 272 266 242 258 263 241 238 245 244 245 247 245 240 244 239 223 218 208 198 194 190 189 192 195 196 196 198 202 206 213 214 220 227 226 227
232 230 231 210 238 231 231 111 34 299 258 268 284 292 271 244 234 242 231 245 234 236 240 248 225 210 200 195 191 188 187 187 188 187 187 194 199 204 210 211 213 221 223 230
213 215 222 225 224 240 113 108 144 217 265 339 308 288 288 283 250 248 246 230 234 228 236 224 201 195 188 185 186 184 186 183 179 176 178 185 193 200 208 212 212 223 220 223
205 200 213 222 229 222 133 162 229 27 343 325 302 287 276 268 270 231 206 213 210 217 213 200 183 179 180 173 171 172 175 173 167 170 175 184 192 194 209 214 209 218 215 225
205 206 205 215 221 105 81 83 76 28 351 313 307 305 269 262 85 124 161 148 173 179 182 172 159 153 168 156 158 161 166 165 167 168 175 182 185 185 206 202 206 214 219 221
197 200 209 127 123 110 81 78 87 80 68 11 52 62 116 110 105 102 103 110 125 143 146 146 143 138 150 141 149 155 153 163 159 168 180 187 188 186 202 198 204 204 205 216
40 320 208 120 127 112 105 90 85 80 74 87 66 73 72 88 96 101 99 111 122 129 133 138 134 127 124 125 135 146 151 159 162 173 180 180 179 181 172 170 170 192 198 204
1 355 293 137 149 104 100 97 96 83 82 69 83 88 83 83 86 81 79 90 109 108 113 113 108 109 109 114 124 132 144 156 159 149 147 157 162 159 162 171 178 187 192 201